This is the latest recevied weather packets stored in our database for station/object N5PA. If no packets are shown the sender has not sent any weather packets the latest 1 day(s).
| Time | Temp. | Humidity | Pressure | Rain* | Wind** | Luminosity | Snow |
|---|---|---|---|---|---|---|---|
| 1778025607 | 24.44° C | 68% | 1011 hPa | 0 mm | 0.89 m/s, 137° | 997 W/m² | - |
| 1778025308 | 24.44° C | 68% | 1011 hPa | 0 mm | 0.89 m/s, 145° | 997 W/m² | - |
| 1778025008 | 24.44° C | 68% | 1011 hPa | 0 mm | 0.89 m/s, 151° | 997 W/m² | - |
| 1778024708 | 24.44° C | 67% | 1011.1 hPa | 0 mm | 0.89 m/s, 142° | 997 W/m² | - |
| 1778024407 | 25° C | 67% | 1011 hPa | 0 mm | 1.34 m/s, 150° | 997 W/m² | - |
| 1778024107 | 25° C | 68% | 1011.1 hPa | 0 mm | 1.34 m/s, 150° | 997 W/m² | - |
| 1778023807 | 25° C | 67% | 1011.1 hPa | 0 mm | 1.34 m/s, 151° | 997 W/m² | - |
| 1778023508 | 25° C | 67% | 1011.2 hPa | 0 mm | 1.34 m/s, 154° | 997 W/m² | - |
| 1778023207 | 25° C | 66% | 1011.3 hPa | 0 mm | 1.34 m/s, 171° | 997 W/m² | - |
| 1778022907 | 25° C | 66% | 1011.4 hPa | 0 mm | 1.34 m/s, 170° | 997 W/m² | - |
| 1778022606 | 25° C | 67% | 1011.3 hPa | 0 mm | 1.34 m/s, 151° | 997 W/m² | - |
| 1778022307 | 25° C | 66% | 1011.4 hPa | 0 mm | 0.89 m/s, 164° | 997 W/m² | - |
| 1778022006 | 25.56° C | 66% | 1011.4 hPa | 0 mm | 0.89 m/s, 190° | 995 W/m² | - |
| 1778021706 | 25.56° C | 66% | 1011.4 hPa | 0 mm | 0.89 m/s, 156° | 995 W/m² | - |
| 1778021408 | 25.56° C | 66% | 1011.2 hPa | 0 mm | 0.89 m/s, 125° | 995 W/m² | - |
| 1778021108 | 25.56° C | 66% | 1011.1 hPa | 0 mm | 0.89 m/s, 140° | 997 W/m² | - |
| 1778020807 | 25.56° C | 65% | 1011.3 hPa | 0 mm | 0.45 m/s, 149° | 995 W/m² | - |
| 1778020507 | 25.56° C | 66% | 1011.3 hPa | 0 mm | 0.45 m/s, 167° | 997 W/m² | - |
| 1778020216 | 25.56° C | 65% | 1011.3 hPa | 0 mm | 0.45 m/s, 162° | 995 W/m² | - |
| 1778019907 | 25.56° C | 64% | 1011.3 hPa | 0 mm | 0.45 m/s, 161° | 997 W/m² | - |
| 1778019608 | 26.11° C | 64% | 1011.2 hPa | 0 mm | 0.45 m/s, 162° | 995 W/m² | - |
| 1778019308 | 26.11° C | 64% | 1011.2 hPa | 0 mm | 0.89 m/s, 194° | 995 W/m² | - |
| 1778019007 | 26.11° C | 63% | 1011 hPa | 0 mm | 0.89 m/s, 198° | 995 W/m² | - |
| 1778018706 | 26.11° C | 62% | 1011 hPa | 0 mm | 0.89 m/s, 177° | 995 W/m² | - |
| 1778018406 | 26.11° C | 62% | 1011.1 hPa | 0 mm | 0.89 m/s, 179° | 995 W/m² | - |
* Rain latest hour (hover to see other rain measurements)
** Current wind speed in m/s (hover to see current wind gust speed)